Terug naar catalogus

FENGYUN 1C DEB

ActiefPO
NORAD 31236·DEBRIS·🇨🇳 China

Gelanceerd May 10, 1999 vanaf Taiyuan Satellite Launch Center

Loading…

Volgende Passages (komende 24 uur)

TLE

VersSource: Space-Track

Epoch: Sep 13, 2026, 18:35 UTC

1 31236U 99025BLS 26256.77436424  .00005443  00000-0  30943-2 0  9995
2 31236  98.5435 194.1820 0308224  11.3685 349.4235 13.88946062648396

Volg FENGYUN 1C DEB in realtime met AllMySat

Download on the App Store